This is the latest recevied weather packets stored in our database for station/object CE3RCJ-14. If no packets are shown the sender has not sent any weather packets the latest 10 day(s).
| Time | Temp. | Humidity | Pressure | Rain* | Wind** | Luminosity | Snow |
|---|---|---|---|---|---|---|---|
| 1777919882 | 20° C | 33% | 1013.9 hPa | - | - | - | - |
| 1777919583 | 20° C | 33% | 1014 hPa | - | - | - | - |
| 1777915682 | 20° C | 34% | 1014.6 hPa | - | - | - | - |
| 1777913282 | 19.44° C | 35% | 1015.4 hPa | - | - | - | - |
| 1777912398 | 18.89° C | 35% | 1015.6 hPa | - | - | - | - |
| 1777911782 | 18.89° C | 36% | 1015.8 hPa | - | - | - | - |
| 1777910582 | 18.89° C | 36% | 1016 hPa | - | - | - | - |
| 1777910284 | 18.89° C | 37% | 1016.1 hPa | - | - | - | - |
| 1777907286 | 17.78° C | 39% | 1016.3 hPa | - | - | - | - |
| 1777906383 | 17.22° C | 40% | 1016.6 hPa | - | - | - | - |
| 1777906082 | 16.67° C | 41% | 1016.6 hPa | - | - | - | - |
| 1777904583 | 16.11° C | 42% | 1017 hPa | - | - | - | - |
| 1777903382 | 15.56° C | 42% | 1017.2 hPa | - | - | - | - |
| 1777902482 | 15° C | 43% | 1017.5 hPa | - | - | - | - |
| 1777901282 | 15° C | 43% | 1017.5 hPa | - | - | - | - |
| 1777899183 | 13.89° C | 44% | 1017.6 hPa | - | - | - | - |
| 1777897698 | 13.89° C | 44% | 1017.6 hPa | - | - | - | - |
| 1777895597 | 13.33° C | 44% | 1017.5 hPa | - | - | - | - |
| 1777894982 | 13.33° C | 44% | 1017.5 hPa | - | - | - | - |
| 1777893482 | 12.78° C | 45% | 1017.7 hPa | - | - | - | - |
| 1777893182 | 13.33° C | 44% | 1017.6 hPa | - | - | - | - |
| 1777889582 | 13.89° C | 43% | 1017.2 hPa | - | - | - | - |
| 1777887182 | 13.89° C | 42% | 1017.1 hPa | - | - | - | - |
| 1777885082 | 13.89° C | 42% | 1016.9 hPa | - | - | - | - |
| 1777882983 | 13.33° C | 43% | 1017.3 hPa | - | - | - | - |
* Rain since midnight (hover to see other rain measurements)
** Current wind speed in m/s (hover to see current wind gust speed)